Weather History for KBBW - November, 2013

Change the Weather History Date:

Wednesday, November 20, 2013

  Actual Average Record
Temperature  
Mean Temperature 46 °F 33 °F  
Max Temperature 61 °F 46 °F 72 °F (1962)
Min Temperature 30 °F 21 °F -5 °F (1950)
Degree Days  
Heating Degree Days 19 32  
Month to date heating degree days 507 532  
Cooling Degree Days 0 0  
Month to date cooling degree days 0 0  
Year to date cooling degree days 814 768  
Moisture  
Dew Point 31 °F    
Average Humidity 53    
Maximum Humidity 79    
Minimum Humidity 27    
Precipitation  
Precipitation 0.00 in 0.03 in 1.79 in (1930)
Sea Level Pressure  
Sea Level Pressure 29.80 in    
Wind  
Wind Speed 9 mph (North)    
Max Wind Speed 31 mph    
Max Gust Speed 40 mph    
Visibility 10 miles    
Events      
T = Trace of Precipitation, MM = Missing Value Source: NWS Daily Summary

Daily Weather History Graph

Daily Weather History Graph

Search for Another Location

Airport or City:

Trip Planner

Search our weather history database for the weather conditions in past years. The results will help you decide how hot, cold, wet, or windy it might be!

Date:

Astronomy

Nov. 20, 2013 Rise Set
Actual Time 7:33 AM CST 5:14 PM CST
Civil Twilight 7:03 AM CST 5:44 PM CST
Nautical Twilight 6:29 AM CST 6:18 PM CST
Astronomical Twilight 5:56 AM CST 6:51 PM CST
Moon 7:59 PM CST (11/20) 9:59 AM CST (11/20)
Length of Visible Light 10h 41m
Length of Day
9h 41m
Waning Gibbous, 91% of the Moon is Illuminated
Nov 20
Waning Gibbous
Nov 25
Last Quarter
Dec 2
New
Dec 9
First Quarter
Dec 17
Full

Hourly Weather History & Observations

Time (CST) Temp. Windchill Dew Point Humidity Pressure Visibility Wind Dir Wind Speed Gust Speed Precip Events Conditions
12:53 AM 42.1 °F 37.7 °F 34.0 °F 73% 29.73 in 10.0 mi SSW 6.9 mph - N/A   Clear
1:53 AM 42.1 °F 37.1 °F 34.0 °F 73% 29.71 in 10.0 mi SSW 8.1 mph - N/A   Clear
2:53 AM 43.0 °F 41.3 °F 35.1 °F 74% 29.70 in 10.0 mi SSE 3.5 mph - N/A   Partly Cloudy
3:53 AM 42.1 °F - 35.1 °F 76% 29.70 in 10.0 mi Calm Calm - N/A   Clear
4:53 AM 41.0 °F - 34.0 °F 76% 29.69 in 10.0 mi Calm Calm - N/A   Clear
5:53 AM 39.9 °F - 34.0 °F 79% 29.70 in 10.0 mi Calm Calm - N/A   Overcast
6:53 AM 39.9 °F 36.7 °F 34.0 °F 79% 29.70 in 10.0 mi West 4.6 mph - N/A   Partly Cloudy
7:53 AM 39.0 °F - 34.0 °F 82% 29.73 in 10.0 mi Calm Calm - N/A   Overcast
8:53 AM 46.9 °F - 33.1 °F 59% 29.73 in 10.0 mi NW 5.8 mph - N/A   Overcast
9:53 AM 48.0 °F - 33.1 °F 56% 29.74 in 10.0 mi North 12.7 mph - N/A   Overcast
10:53 AM 52.0 °F - 33.1 °F 49% 29.76 in 10.0 mi NNW 5.8 mph - N/A   Mostly Cloudy
11:53 AM 55.9 °F - 32.0 °F 40% 29.74 in 10.0 mi North 9.2 mph - N/A   Clear
12:53 PM 57.9 °F - 30.0 °F 35% 29.72 in 10.0 mi North 10.4 mph - N/A   Clear
1:53 PM 60.1 °F - 27.0 °F 28% 29.71 in 10.0 mi North 11.5 mph - N/A   Clear
2:53 PM 61.0 °F - 27.0 °F 27% 29.70 in 10.0 mi NNE 10.4 mph - N/A   Clear
3:53 PM 60.1 °F - 27.0 °F 28% 29.74 in 10.0 mi North 5.8 mph - N/A   Clear
4:53 PM 55.0 °F - 27.0 °F 34% 29.78 in 10.0 mi NNE 4.6 mph - N/A   Clear
5:53 PM 41.0 °F 36.4 °F 28.0 °F 60% 29.84 in 10.0 mi North 6.9 mph - N/A   Clear
6:53 PM 41.0 °F 38.0 °F 28.9 °F 62% 29.86 in 10.0 mi North 4.6 mph - N/A   Clear
7:53 PM 39.0 °F 34.8 °F 28.9 °F 67% 29.90 in 10.0 mi North 5.8 mph - N/A   Clear
8:53 PM 39.0 °F 31.0 °F 30.0 °F 70% 29.92 in 10.0 mi North 13.8 mph 17.3 mph N/A   Clear
9:53 PM 37.0 °F 25.4 °F 30.0 °F 76% 29.96 in 10.0 mi North 25.3 mph 31.1 mph N/A   Clear
10:53 PM 32.0 °F 17.6 °F 26.1 °F 79% 30.03 in 10.0 mi North 29.9 mph 35.7 mph N/A   Clear
11:40 PM 30.2 °F 16.5 °F 24.8 °F 80% 30.03 in 10.0 mi North 24.2 mph 39.1 mph N/A   Mostly Cloudy
11:53 PM 30.0 °F 14.9 °F 24.1 °F 79% 30.06 in 10.0 mi North 29.9 mph 39.1 mph N/A   Overcast